joomla templates top joomla templates template joomla

King Air Abend

Wetterbeurteilung mit Hilfe Webcam und ATIS

 

Webcam 1Webcam 2

(Zum vergrößern auf das Bild klicken)

Wetteranzeige

Aktuelles Platzwetter Stand 16.07.2019 17:22Z

AvgMin / Max
Windrichtung320 Deg230 / 140 Deg
Windgeschwindigkeit5 kt0 / 8 kt
Sichtweite>10000 m
Temperatur21 °C
Taupunkt8 °C
Feuchte42 %
QNH1016.6 hPa
QFE963.1 hPa
WolkenSKC

Aerodrome Terminal Information Service (ATIS) Coburg

METAR
EDQC 161720Z AUTO 32004KT 140V110 CAVOK 22/08 Q1016=

Wetterverlauf

Notam

C0503/18 - COBURG INFO CHANGED TO 128.680 (8.33 KHZ). 28 FEB 12:22 2018 UNTIL PERM. CREATED:
28 FEB 12:22 2018

C0132/18 - DIRECTION FINDING STATION (VDF) COMPLETELY WITHDRAWN. 15 FEB 00:01 2018 UNTIL PERM. CREATED: 19 JAN 10:58 2018

Windvorhersage

Verkehrslandeplatz Coburg Brandensteinsebene
Tower
Zur Brandensteinsebene
96450 Coburg

 

Telefon +49 (0) 95 61 / 9 20 98
Telefax +49 (0) 95 61 / 9 20 06
EMail tower@vlp-coburg.de